Wind_Speed
11 12 13 13 13 13 13 13 13 13 12 12 12 12 12 11 10 9 7 6 5 5 4 4 4 3 3 3 3 2 1 2 2 2 2 3 3 3 3 3 3 3 3
12 13 13 13 14 14 14 14 14 13 13 13 13 13 13 12 11 10 9 7 6 6 6 5 5 4 4 3 3 2 2 2 2 2 2 3 3 3 3 3 3 3 3
14 15 15 15 15 15 15 15 15 14 14 14 14 14 14 14 13 12 10 9 8 7 7 6 6 5 4 4 3 3 2 2 2 2 2 3 3 3 3 3 3 3 4
16 16 17 17 16 16 16 17 16 16 16 16 15 15 15 15 14 13 12 11 10 9 8 7 7 6 5 5 4 4 3 3 3 2 2 3 3 3 3 3 4 4 4
18 18 19 19 18 18 17 18 18 18 17 17 16 16 16 16 16 15 14 12 11 10 9 9 8 7 6 6 5 5 5 4 3 3 2 3 3 3 3 3 4 4 4
18 19 19 20 20 19 19 19 19 19 18 18 17 17 18 18 18 17 16 14 13 12 11 10 9 8 7 7 7 7 6 5 5 4 3 4 3 3 3 4 4 4 5
18 19 20 21 21 21 21 21 20 20 19 19 18 19 19 19 19 18 17 16 15 14 12 11 10 9 9 9 8 8 8 7 6 5 4 5 5 5 4 5 5 5 5
19 19 20 22 22 21 21 21 21 21 21 20 20 20 20 21 20 20 19 18 17 15 14 13 11 11 10 10 10 10 9 8 7 6 5 6 6 6 6 6 6 6 6
19 19 19 20 22 21 21 21 21 21 21 21 21 21 21 21 21 21 20 19 18 17 16 14 13 12 12 12 12 11 10 10 9 8 7 7 6 6 7 7 7 8 8
18 18 18 19 20 20 21 21 21 21 21 22 22 23 23 22 22 22 21 21 20 19 17 16 15 14 14 13 13 12 12 11 10 9 8 8 8 8 8 8 9 10 10
19 19 19 19 20 21 20 21 21 21 22 22 23 24 24 24 23 23 22 22 22 21 19 18 16 15 15 15 14 14 13 13 11 10 10 10 10 9 9 10 10 11 12
21 20 21 21 22 22 22 22 22 22 23 24 24 25 25 25 25 25 24 23 23 22 21 20 18 17 17 16 16 16 15 14 13 13 13 12 12 12 12 12 12 13 14
22 21 21 22 22 24 24 24 24 25 24 24 25 25 26 26 26 26 25 25 24 23 22 21 20 19 18 18 17 17 17 16 15 15 15 15 14 14 14 14 14 15 15
25 23 22 21 23 24 24 24 25 24 25 26 26 27 27 27 26 26 26 26 25 24 24 23 22 21 20 19 18 18 19 18 17 17 17 17 17 17 17 17 17 17 17
26 24 23 23 23 24 24 24 24 24 24 25 25 26 27 27 26 26 26 26 26 25 24 24 23 23 22 21 20 20 20 20 19 18 18 19 19 19 19 20 20 20 20
28 26 25 25 23 23 24 24 24 24 24 24 25 26 26 27 27 26 26 26 26 26 24 24 24 24 23 22 22 22 22 22 22 21 20 20 20 21 22 22 23 23 23
29 28 25 25 24 23 23 23 24 25 25 26 25 25 26 26 26 26 26 27 26 26 25 25 25 24 25 24 24 24 24 24 24 23 23 23 23 23 24 24 25 26 25
30 29 27 25 25 25 24 24 25 25 25 25 24 26 26 26 26 27 28 28 27 27 27 26 27 26 26 26 25 25 25 25 25 25 26 26 26 26 26 27 27 28 27
30 29 28 27 27 27 26 25 25 24 25 25 24 25 25 27 27 28 28 28 28 28 28 28 27 27 27 27 26 26 26 27 27 27 28 29 29 28 28 29 30 30 30
31 31 30 30 30 28 27 27 26 25 25 24 24 23 23 25 27 27 28 28 28 28 28 28 28 28 29 29 28 28 28 28 29 30 30 31 31 31 31 31 32 33 33
33 33 32 32 32 31 29 28 28 27 25 25 24 22 21 22 23 25 26 28 28 28 28 29 29 29 30 29 29 29 29 30 31 31 33 32 33 33 34 34 34 34 34
35 35 33 34 34 34 32 30 30 28 27 26 25 24 23 22 24 23 25 26 27 28 29 29 30 29 30 30 30 30 30 31 31 32 33 34 34 35 35 36 37 38 37
35 35 35 35 35 35 33 32 30 30 28 26 26 25 25 26 25 25 24 24 26 27 29 30 29 29 29 30 30 30 31 31 33 34 35 36 36 37 37 38 38 40 40
34 35 35 35 35 35 34 34 32 31 30 28 27 26 26 25 24 24 24 24 25 26 27 29 30 29 30 31 31 31 32 34 35 35 36 36 37 38 39 40 40 41 42
33 34 35 35 35 35 34 34 33 32 31 30 29 28 27 26 26 25 25 24 25 25 26 27 28 29 30 30 31 32 34 35 35 36 36 37 38 38 39 40 41 42 44
33 34 35 35 35 35 35 34 34 33 31 30 29 28 27 27 27 26 26 26 26 26 27 28 29 29 30 30 31 32 33 34 34 36 37 38 39 39 40 42 43 45 46
Wind_Direction
255 245 239 230 222 218 217 216 216 218 220 222 225 227 229 233 234 234 237 245 253 261 271 281 294 307 312 310 320 330 336 352 358 1 9 17 17 17 12 7 2 355 351
255 248 239 233 227 223 224 224 221 222 226 229 231 234 238 240 242 242 243 248 256 262 269 276 283 294 296 292 297 300 303 323 338 344 358 5 7 10 7 0 355 352 345
256 250 242 238 233 230 229 228 227 229 232 234 236 240 244 246 248 248 248 253 260 264 269 275 279 284 281 274 273 275 279 299 312 326 341 344 353 1 4 358 349 347 341
255 252 247 243 238 236 234 232 231 232 235 238 242 245 248 252 253 253 254 257 262 265 269 273 275 274 268 260 258 260 266 279 288 298 317 320 328 340 347 349 346 343 340
255 253 249 246 242 240 238 237 236 236 238 241 244 248 252 256 256 256 258 261 264 265 268 272 273 269 260 253 251 252 258 266 271 272 280 290 304 322 330 336 341 339 339
258 255 250 247 244 242 241 239 240 240 242 244 247 250 254 258 259 260 262 263 265 266 268 270 271 264 255 250 248 249 255 258 259 260 270 276 288 305 314 322 330 332 333
260 256 250 246 245 244 243 240 241 243 245 247 250 253 256 259 261 263 265 265 266 266 266 267 267 260 253 249 248 249 253 255 257 258 266 274 285 294 302 309 321 326 326
259 256 252 249 246 244 245 243 243 246 248 250 253 255 257 259 262 264 266 265 265 265 264 265 264 259 255 251 249 250 253 254 254 258 265 274 285 292 298 302 309 315 318
258 255 252 252 248 245 245 246 247 249 251 252 253 255 257 260 263 265 266 265 264 264 263 263 262 258 255 252 251 251 253 253 254 258 260 270 280 288 295 296 300 303 308
256 254 253 251 250 249 248 247 247 250 254 254 255 257 259 262 263 264 264 263 263 262 262 262 259 256 255 253 252 251 252 252 254 259 259 264 274 283 291 294 295 295 298
256 253 254 252 253 251 250 249 249 252 255 257 259 260 261 262 262 262 263 263 262 261 260 261 258 256 255 253 252 251 252 252 253 257 260 265 273 278 286 291 291 291 293
253 253 254 256 254 253 253 252 252 253 256 258 261 262 262 261 261 261 262 262 260 261 260 259 257 255 255 255 254 254 255 254 256 257 261 267 271 276 282 286 289 289 290
252 252 255 259 259 254 252 252 253 254 256 259 261 262 261 261 261 261 260 259 259 260 259 257 256 255 255 255 256 256 257 257 258 261 264 267 271 275 279 283 286 288 289
251 251 254 256 260 261 254 255 256 256 257 258 260 261 260 258 258 257 258 258 257 257 257 256 255 255 254 254 255 256 258 260 261 262 264 267 270 274 278 282 284 286 288
251 248 249 255 259 262 258 256 258 258 262 261 262 264 260 258 256 256 257 256 255 255 255 254 254 253 252 252 254 256 258 262 263 265 267 269 271 274 278 281 284 285 286
251 249 247 253 256 260 259 258 262 263 265 264 265 264 261 255 255 257 256 257 255 254 253 253 252 250 251 252 255 257 260 263 266 268 268 269 272 275 278 281 282 283 283
251 253 248 253 254 258 259 261 264 264 267 267 265 263 262 254 252 254 258 258 253 251 252 252 249 248 250 253 255 258 261 264 266 267 268 269 270 273 276 279 281 282 281
251 252 251 253 256 258 261 263 265 267 268 269 269 268 265 259 255 256 256 256 253 251 252 252 247 250 253 254 254 256 259 262 265 267 270 271 272 272 275 278 281 283 282
248 251 252 254 256 257 258 262 266 271 273 273 272 269 263 258 256 254 255 254 253 253 253 253 250 250 253 254 254 256 259 261 264 268 272 272 273 274 275 277 280 281 280
247 249 251 255 256 259 262 264 269 272 273 275 275 272 265 259 255 258 257 255 255 256 255 253 251 252 254 253 254 256 259 261 264 267 270 272 274 276 276 277 278 278 280
248 249 250 252 256 260 263 265 269 273 274 277 277 274 268 266 261 261 257 256 257 257 257 255 254 254 255 255 256 258 260 262 265 269 271 273 274 275 277 277 278 279 281
247 249 249 251 255 258 261 265 268 274 276 275 275 275 270 269 269 269 265 262 259 259 258 257 256 256 256 256 258 260 263 264 266 268 271 273 273 275 277 278 279 280 282
247 248 249 249 252 257 260 264 268 271 275 276 273 273 275 273 274 272 266 263 261 259 256 254 256 258 257 259 260 262 262 264 267 268 272 274 275 276 277 278 280 282 283
248 248 249 249 252 256 260 265 267 270 272 274 274 274 275 275 275 275 268 264 263 260 257 253 254 257 260 261 262 262 263 265 268 269 271 273 275 278 278 279 281 283 284
246 246 248 250 252 255 258 261 264 266 269 272 275 276 274 275 274 273 271 270 266 262 259 257 257 258 261 263 263 264 267 268 270 270 271 272 275 277 279 282 283 284 285
246 246 246 249 252 254 256 259 262 265 267 268 271 272 272 274 272 270 267 268 265 262 260 259 260 262 263 264 265 267 268 268 270 272 274 275 276 277 279 282 284 285 287
Height
5886 5886 5888 5889 5890 5891 5892 5892 5894 5895 5895 5896 5897 5897 5898 5898 5898 5898 5898 5898 5898 5897 5897 5897 5897 5896 5896 5896 5896 5895 5895 5895 5895 5896 5895 5895 5895 5895 5895 5895 5895 5895 5895
5885 5885 5886 5888 5888 5890 5891 5891 5892 5893 5894 5895 5896 5896 5897 5897 5897 5897 5897 5897 5897 5897 5896 5896 5896 5896 5895 5895 5895 5895 5895 5895 5895 5895 5895 5895 5895 5895 5895 5895 5895 5895 5895
5883 5884 5885 5886 5887 5888 5889 5890 5891 5892 5893 5894 5894 5895 5896 5896 5896 5896 5896 5896 5896 5896 5895 5895 5895 5895 5895 5895 5894 5894 5894 5895 5895 5895 5895 5895 5895 5895 5895 5895 5895 5895 5894
5881 5882 5883 5884 5885 5886 5887 5888 5889 5890 5891 5892 5893 5894 5894 5895 5895 5895 5895 5895 5895 5895 5894 5894 5894 5894 5894 5894 5894 5894 5894 5894 5895 5895 5895 5895 5895 5895 5895 5895 5895 5895 5894
5879 5880 5881 5882 5883 5884 5885 5886 5887 5888 5889 5890 5891 5892 5893 5893 5893 5893 5893 5893 5893 5893 5893 5893 5893 5893 5893 5893 5893 5893 5894 5894 5895 5895 5895 5895 5895 5894 5895 5895 5894 5894 5894
5877 5877 5878 5879 5880 5881 5883 5884 5885 5886 5887 5888 5889 5890 5890 5891 5891 5892 5892 5892 5892 5892 5892 5892 5892 5892 5892 5892 5892 5892 5893 5893 5894 5894 5895 5895 5894 5894 5894 5894 5894 5894 5894
5874 5875 5875 5876 5877 5878 5880 5881 5882 5883 5884 5885 5886 5887 5888 5888 5889 5889 5890 5890 5890 5890 5890 5890 5890 5891 5891 5891 5891 5891 5892 5892 5893 5893 5894 5894 5894 5894 5893 5893 5893 5893 5893
5871 5872 5872 5873 5874 5875 5876 5878 5879 5880 5882 5882 5883 5884 5885 5885 5886 5887 5887 5888 5887 5887 5888 5888 5889 5889 5889 5890 5890 5890 5891 5891 5892 5892 5893 5893 5893 5893 5893 5893 5893 5893 5893
5868 5868 5869 5870 5870 5872 5873 5874 5876 5877 5878 5879 5880 5881 5881 5882 5883 5884 5885 5885 5885 5885 5885 5886 5887 5887 5888 5888 5888 5889 5889 5890 5891 5891 5891 5891 5892 5892 5892 5892 5892 5892 5892
5864 5865 5866 5867 5868 5868 5870 5871 5872 5873 5875 5876 5877 5877 5878 5879 5880 5881 5881 5882 5882 5882 5883 5883 5884 5885 5885 5886 5887 5887 5888 5888 5889 5890 5890 5890 5890 5891 5891 5891 5890 5890 5890
5861 5862 5863 5864 5864 5865 5866 5867 5868 5870 5871 5872 5873 5874 5874 5875 5876 5877 5878 5878 5879 5879 5880 5881 5881 5882 5883 5883 5884 5885 5885 5886 5887 5888 5887 5887 5889 5889 5889 5889 5889 5889 5889
5856 5858 5859 5860 5861 5862 5862 5863 5864 5865 5866 5868 5869 5869 5870 5871 5872 5873 5874 5874 5875 5876 5877 5878 5879 5879 5880 5881 5881 5882 5883 5883 5885 5886 5886 5886 5887 5887 5887 5887 5887 5887 5887
5852 5853 5854 5856 5856 5857 5858 5859 5860 5861 5862 5863 5864 5864 5866 5867 5868 5869 5870 5870 5871 5872 5873 5874 5875 5876 5877 5878 5879 5879 5880 5881 5882 5883 5884 5884 5884 5884 5884 5884 5884 5884 5884
5847 5848 5850 5852 5852 5852 5854 5854 5855 5856 5857 5858 5858 5859 5860 5862 5863 5864 5865 5865 5866 5867 5869 5870 5871 5872 5873 5874 5875 5876 5877 5877 5879 5880 5880 5880 5881 5881 5881 5881 5881 5881 5881
5841 5842 5846 5847 5847 5847 5848 5849 5850 5851 5852 5853 5853 5854 5855 5856 5858 5859 5859 5859 5861 5862 5864 5866 5867 5868 5869 5870 5872 5872 5873 5874 5875 5876 5876 5877 5877 5877 5878 5878 5878 5877 5877
5835 5836 5839 5841 5840 5841 5843 5844 5845 5846 5847 5848 5849 5849 5848 5850 5852 5853 5852 5853 5856 5858 5859 5859 5861 5863 5864 5866 5868 5868 5869 5870 5871 5871 5872 5872 5873 5873 5873 5873 5873 5873 5872
5832 5831 5832 5834 5835 5836 5838 5840 5840 5840 5841 5843 5843 5844 5843 5843 5845 5847 5849 5850 5851 5853 5854 5854 5856 5858 5860 5861 5863 5864 5865 5865 5866 5866 5867 5868 5869 5868 5868 5868 5868 5867 5867
5827 5827 5827 5829 5831 5832 5834 5835 5835 5835 5835 5836 5837 5838 5838 5838 5839 5841 5844 5845 5846 5848 5849 5851 5852 5854 5855 5857 5858 5859 5860 5860 5861 5861 5861 5862 5863 5863 5863 5862 5862 5861 5861
5822 5823 5823 5824 5827 5827 5829 5829 5830 5829 5830 5832 5832 5833 5833 5833 5834 5835 5837 5839 5841 5842 5844 5845 5847 5848 5850 5852 5853 5854 5855 5855 5856 5856 5856 5856 5856 5857 5857 5856 5856 5855 5855
5816 5818 5819 5819 5820 5821 5823 5824 5825 5826 5826 5826 5827 5828 5828 5828 5828 5829 5831 5833 5835 5836 5838 5840 5842 5843 5844 5846 5847 5849 5849 5850 5851 5851 5851 5850 5850 5850 5851 5850 5849 5849 5849
5810 5812 5814 5815 5817 5818 5819 5820 5820 5820 5821 5822 5823 5823 5823 5823 5823 5823 5825 5827 5828 5830 5832 5834 5836 5837 5838 5840 5841 5842 5843 5843 5844 5844 5844 5845 5844 5844 5844 5843 5842 5841 5841
5803 5806 5808 5810 5811 5812 5814 5815 5816 5815 5816 5817 5818 5818 5819 5818 5819 5819 5820 5821 5822 5824 5826 5828 5830 5832 5833 5834 5835 5836 5837 5838 5837 5837 5837 5837 5837 5836 5836 5835 5834 5834 5834
5796 5799 5801 5803 5805 5806 5807 5809 5810 5811 5811 5812 5812 5812 5813 5814 5814 5815 5815 5816 5817 5818 5820 5822 5824 5826 5827 5828 5829 5830 5830 5830 5831 5831 5830 5830 5830 5829 5829 5828 5827 5825 5825
5790 5792 5794 5796 5798 5800 5802 5803 5805 5806 5807 5807 5806 5807 5808 5809 5809 5810 5810 5811 5812 5813 5814 5816 5818 5819 5821 5821 5822 5822 5823 5823 5824 5824 5824 5823 5822 5822 5821 5820 5819 5817 5816
5783 5785 5787 5789 5792 5794 5796 5797 5799 5800 5802 5802 5802 5802 5803 5803 5804 5804 5805 5806 5807 5808 5809 5810 5811 5813 5814 5814 5815 5816 5816 5816 5816 5816 5816 5815 5815 5814 5812 5811 5810 5808 5807
5777 5779 5781 5783 5785 5788 5790 5791 5793 5794 5796 5796 5796 5796 5797 5798 5798 5799 5800 5801 5801 5802 5803 5805 5805 5806 5807 5807 5808 5808 5808 5808 5808 5807 5807 5806 5806 5806 5804 5803 5801 5799 5797